Stations météo

réclame
Mon MeteoGroup
Putbus, Allemagne (10093): Température de l'air & dewpoint: 13.07.2019 21:00:00 - 19.07.2019 21:00:00 (CEST)Putbus, Allemagne (10093): Température de l'air 5cm & Température de l'air -5cm: 13.07.2019 21:00:00 - 19.07.2019 21:00:00 (CEST)Putbus, Allemagne (10093): Température de l'air -20cm & Température de l'air -100cm: 13.07.2019 21:00:00 - 19.07.2019 21:00:00 (CEST)Putbus, Allemagne (10093): Vitesse du vent & gusts: 13.07.2019 21:00:00 - 19.07.2019 21:00:00 (CEST)Putbus, Allemagne (10093): Direction du vent: 13.07.2019 21:00:00 - 19.07.2019 21:00:00 (CEST)Putbus, Allemagne (10093): reduced air pressure: 13.07.2019 21:00:00 - 19.07.2019 21:00:00 (CEST)Putbus, Allemagne (10093): visibility: 13.07.2019 21:00:00 - 19.07.2019 21:00:00 (CEST)Putbus, Allemagne (10093): Ensoleillement: 13.07.2019 21:00:00 - 19.07.2019 21:00:00 (CEST)Putbus, Allemagne (10093): Quantités de précipitations: 13.07.2019 21:00:00 - 19.07.2019 21:00:00 (CEST)
Date & Time tt [°C] td [°C] tt 5cm [°C] tt -5cm [°C] tt -20cm [°C] tt -100cm [°C] ff [km/h] ff [knt] fx [km/h] fx [knt] dd ppp [hPa] vv [km] sd [min] rr [mm]
19.07.2019 21:00:00 - - - - - - - - - - - - - - -
19.07.2019 20:00:00 - - - - - - - - - - - - - - -
19.07.2019 19:00:00 - - - - - - - - - - - - - - -
19.07.2019 18:00:00 - - - - - - - - - - - - - - -
19.07.2019 17:00:00 - - - - - - - - - - - - - - -
19.07.2019 16:00:00 - - - - - - - - - - - - - - -
19.07.2019 15:00:00 - - - - - - - - - - - - - - -
19.07.2019 14:00:00 - - - - - - - - - - - - - - -
19.07.2019 13:00:00 - - - - - - - - - - - - - - -
19.07.2019 12:00:00 - - - - - - - - - - - - - - -
19.07.2019 11:00:00 - - - - - - - - - - - - - - -
19.07.2019 10:00:00 - - - - - - - - - - - - - - -
19.07.2019 09:00:00 - - - - - - - - - - - - - - -
19.07.2019 08:00:00 - - - - - - - - - - - - - - -
19.07.2019 07:00:00 - - - - - - - - - - - - - - -
19.07.2019 06:00:00 - - - - - - - - - - - - - - -
19.07.2019 05:00:00 - - - - - - - - - - - - - - -
19.07.2019 04:00:00 - - - - - - - - - - - - - - -
19.07.2019 03:00:00 - - - - - - - - - - - - - - -
19.07.2019 02:00:00 - - - - - - - - - - - - - - -
19.07.2019 01:00:00 - - - - - - - - - - - - - - -
19.07.2019 00:00:00 - - - - - - - - - - - - - - -
18.07.2019 23:00:00 - - - - - - - - - - - - - - -
18.07.2019 22:00:00 - - - - - - - - - - - - - - -
18.07.2019 21:00:00 - - - - - - - - - - - - - - -
18.07.2019 20:00:00 - - - - - - - - - - - - - - -
18.07.2019 19:00:00 - - - - - - - - - - - - - - -
18.07.2019 18:00:00 - - - - - - - - - - - - - - -
18.07.2019 17:00:00 - - - - - - - - - - - - - - -
18.07.2019 16:00:00 - - - - - - - - - - - - - - -
18.07.2019 15:00:00 - - - - - - - - - - - - - - -
18.07.2019 14:00:00 - - - - - - - - - - - - - - -
18.07.2019 13:00:00 - - - - - - - - - - - - - - -
18.07.2019 12:00:00 - - - - - - - - - - - - - - -
18.07.2019 11:00:00 - - - - - - - - - - - - - - -
18.07.2019 10:00:00 - - - - - - - - - - - - - - -
18.07.2019 09:00:00 - - - - - - - - - - - - - - -
18.07.2019 08:00:00 - - - - - - - - - - - - - - -
18.07.2019 07:00:00 - - - - - - - - - - - - - - -
18.07.2019 06:00:00 - - - - - - - - - - - - - - -
18.07.2019 05:00:00 - - - - - - - - - - - - - - -
18.07.2019 04:00:00 - - - - - - - - - - - - - - -
18.07.2019 03:00:00 - - - - - - - - - - - - - - -
18.07.2019 02:00:00 - - - - - - - - - - - - - - -
18.07.2019 01:00:00 - - - - - - - - - - - - - - -
18.07.2019 00:00:00 - - - - - - - - - - - - - - -
17.07.2019 23:00:00 13,1 11,5 11,0 20,5 23,7 17,0 4 2 5 3 WSW 1014,0 35 0 0,0
17.07.2019 22:00:00 14,6 11,7 12,2 22,7 24,3 17,0 5 3 8 5 SSW 1014,0 36 13 0,0
17.07.2019 21:00:00 17,6 12,0 17,0 25,9 24,7 17,0 4 2 10 5 SSE 1014,1 50 60 0,0
17.07.2019 20:00:00 19,2 12,2 21,1 29,2 24,7 17,0 5 3 18 10 SSE 1013,9 53 60 0,0
17.07.2019 19:00:00 20,8 12,4 24,4 29,8 24,6 17,0 10 5 20 11 NNE 1013,6 35 38 0,0
17.07.2019 18:00:00 21,3 9,6 26,8 30,0 24,4 17,0 10 5 21 11 NE 1013,7 31 35 0,0
17.07.2019 17:00:00 20,5 10,4 23,0 31,3 24,0 17,0 10 5 22 12 N 1013,9 23 56 0,0
17.07.2019 16:00:00 20,0 10,0 25,0 33,0 23,2 17,0 13 7 28 15 NNE 1014,0 16 58 0,0
17.07.2019 15:00:00 21,9 11,8 29,1 32,8 22,1 17,0 17 9 28 15 N 1013,8 14 59 0,0
17.07.2019 14:00:00 21,3 11,0 28,2 30,6 21,0 17,0 14 8 26 14 NW 1014,0 30 60 0,0
17.07.2019 13:00:00 19,8 9,3 23,8 28,0 20,1 17,0 16 9 30 16 WNW 1014,1 15 60 0,0
17.07.2019 12:00:00 19,4 9,9 22,4 25,5 19,3 17,0 19 10 29 16 NW 1013,9 15 49 0,0
17.07.2019 11:00:00 19,9 10,3 25,1 23,5 18,6 17,0 15 8 29 15 N 1013,7 21 47 0,0
17.07.2019 10:00:00 17,1 11,7 17,6 19,9 18,2 17,0 13 7 20 11 NW 1013,7 46 9 0,0
17.07.2019 09:00:00 17,1 12,7 18,0 19,9 17,8 17,0 10 6 23 12 WNW 1013,6 28 43 0,0
17.07.2019 08:00:00 16,5 13,5 18,6 16,8 17,8 17,0 13 7 21 11 WNW 1013,5 20 60 0,0
17.07.2019 07:00:00 14,7 12,9 14,7 15,1 18,0 17,0 13 7 19 10 WNW 1013,4 16 54 0,0
17.07.2019 06:00:00 13,9 12,2 12,8 14,6 18,3 17,0 13 7 20 11 WNW 1013,3 35 36 0,0
17.07.2019 05:00:00 13,3 11,7 11,8 14,6 18,6 17,0 13 7 20 11 WNW 1013,1 32 0 0,0
17.07.2019 04:00:00 13,0 11,3 11,2 14,9 19,0 17,0 12 7 18 10 WNW 1013,1 39 0 0,0
17.07.2019 03:00:00 13,8 11,2 12,3 15,4 19,4 17,0 13 7 23 12 WNW 1013,1 30 0 0,0
17.07.2019 02:00:00 14,2 11,8 12,6 15,9 19,9 17,0 14 7 22 12 WNW 1013,2 28 0 0,0
17.07.2019 01:00:00 14,3 12,2 12,7 16,5 20,4 17,0 14 8 27 14 WNW 1013,1 21 0 0,0
17.07.2019 00:00:00 14,5 12,0 12,9 17,3 20,9 17,0 14 8 22 12 WNW 1013,0 24 0 0,0
16.07.2019 23:00:00 15,1 12,3 13,5 18,3 21,4 17,0 14 7 26 14 WNW 1012,9 24 0 0,0
16.07.2019 22:00:00 15,7 12,2 14,5 19,7 21,9 17,1 19 10 27 15 WNW 1012,6 24 0 0,0
16.07.2019 21:00:00 16,5 12,0 15,6 21,9 22,3 17,1 18 10 31 17 WNW 1012,4 23 55 0,0
16.07.2019 20:00:00 17,6 11,8 18,0 24,4 22,3 17,1 20 11 38 21 WNW 1012,3 30 60 0,0
16.07.2019 19:00:00 18,3 11,5 19,8 26,2 22,1 17,1 25 13 39 21 WNW 1012,2 30 59 0,0
16.07.2019 18:00:00 18,8 11,2 21,8 26,9 21,7 17,1 21 11 41 22 WNW 1012,1 15 50 0,0
16.07.2019 17:00:00 17,5 11,0 18,6 25,9 21,4 17,1 22 12 36 20 WNW 1012,2 30 18 0,0
16.07.2019 16:00:00 17,2 10,9 19,5 25,9 20,9 17,1 24 13 37 20 NW 1012,2 41 13 0,0
16.07.2019 15:00:00 16,3 10,7 18,8 24,4 20,5 17,1 25 13 36 19 WNW 1012,1 34 0 0,0
16.07.2019 14:00:00 17,7 10,9 21,3 24,8 20,0 17,1 19 10 39 21 WNW 1011,9 16 16 0,0
16.07.2019 13:00:00 16,7 11,1 20,6 22,3 19,8 17,1 26 14 38 20 WNW 1012,2 20 1 0,0
16.07.2019 12:00:00 15,2 12,4 16,1 21,6 19,5 17,1 21 11 38 20 W 1012,2 10 0 0,0
16.07.2019 11:00:00 16,3 12,3 18,1 21,4 19,2 17,1 25 13 38 20 W 1011,8 26 15 0,0
16.07.2019 10:00:00 15,9 13,0 16,6 19,5 19,0 17,1 17 9 31 17 WNW 1011,6 19 2 0,0
16.07.2019 09:00:00 16,4 12,7 18,0 19,6 18,7 17,1 16 9 32 17 WNW 1011,6 20 25 0,0
16.07.2019 08:00:00 16,5 12,0 19,4 17,9 18,7 17,1 17 9 27 14 NW 1011,4 19 27 0,0
16.07.2019 07:00:00 15,0 11,7 14,8 16,7 18,9 17,1 15 8 34 18 WNW 1011,4 21 0 0,0
16.07.2019 06:00:00 14,4 11,6 13,8 16,2 19,2 17,1 16 9 30 16 WNW 1011,2 24 0 0,0
16.07.2019 05:00:00 14,8 13,2 13,9 16,8 19,4 17,1 17 9 32 18 WNW 1011,0 13 0 0,0
16.07.2019 04:00:00 15,0 13,4 14,6 17,3 19,7 17,1 20 11 35 19 W 1011,2 11 0 0,1
16.07.2019 03:00:00 14,9 12,2 14,9 17,5 19,9 17,1 16 9 24 13 WSW 1011,4 23 0 0,0
16.07.2019 02:00:00 14,6 11,7 14,1 17,7 20,2 17,1 16 8 27 14 WSW 1011,6 16 0 0,0
16.07.2019 01:00:00 14,4 11,4 14,4 17,9 20,5 17,1 16 9 25 14 WSW 1012,0 19 0 0,0
16.07.2019 00:00:00 14,3 10,7 14,4 18,3 20,9 17,1 16 9 29 15 WSW 1012,1 17 0 0,0
15.07.2019 23:00:00 14,9 9,6 14,9 18,9 21,2 17,1 18 10 30 16 WSW 1012,4 20 0 0,0
15.07.2019 22:00:00 15,0 9,1 15,0 19,5 21,6 17,1 15 8 33 18 WSW 1012,8 17 0 0,0
15.07.2019 21:00:00 15,3 9,1 15,5 20,5 22,0 17,1 22 12 37 20 W 1013,1 22 0 0,0
15.07.2019 20:00:00 15,9 9,0 16,3 22,0 22,2 17,1 18 10 37 20 W 1013,2 20 0 0,0
15.07.2019 19:00:00 16,8 8,6 17,9 23,7 22,2 17,1 18 10 34 18 W 1013,3 27 2 0,0
15.07.2019 18:00:00 16,9 9,2 18,4 24,8 22,1 17,1 19 10 41 22 W 1013,6 22 4 0,0
15.07.2019 17:00:00 17,1 8,6 19,0 25,4 21,7 17,1 21 11 39 21 W 1013,9 15 2 0,0
15.07.2019 16:00:00 17,5 8,7 20,1 26,4 21,2 17,1 21 12 39 21 W 1014,2 24 29 0,0
15.07.2019 15:00:00 17,4 8,7 21,3 24,2 20,8 17,1 17 9 32 17 W 1014,6 24 3 0,0
15.07.2019 14:00:00 15,9 8,9 18,2 22,9 20,5 17,1 22 12 34 18 W 1014,8 26 0 0,0
15.07.2019 13:00:00 15,9 9,4 18,2 22,9 20,1 17,1 18 10 33 18 W 1015,0 24 0 0,0
15.07.2019 12:00:00 15,9 9,9 18,4 22,0 19,8 17,1 18 10 32 17 W 1015,1 26 0 0,0
15.07.2019 11:00:00 15,5 11,0 17,6 20,0 19,8 17,1 20 11 35 19 W 1015,1 18 0 0,0
15.07.2019 10:00:00 14,4 12,6 14,9 18,8 19,8 17,1 13 7 22 12 W 1015,1 16 0 0,0
15.07.2019 09:00:00 13,8 12,5 14,2 18,5 19,9 17,1 11 6 24 13 WSW 1015,3 10 0 0,0
15.07.2019 08:00:00 14,4 12,0 15,4 18,5 20,0 17,0 12 7 24 13 WSW 1015,2 13 0 0,0
15.07.2019 07:00:00 14,3 11,9 15,0 18,0 20,2 17,0 14 8 24 13 WSW 1015,1 22 0 0,0
15.07.2019 06:00:00 14,3 11,7 14,5 17,9 20,4 17,0 13 7 19 10 WSW 1015,4 19 0 0,0
15.07.2019 05:00:00 14,4 11,9 14,5 18,1 20,7 17,0 9 5 17 9 W 1015,5 19 0 0,0
15.07.2019 04:00:00 14,7 11,7 14,8 18,5 21,0 17,0 10 5 17 9 WSW 1015,8 22 0 0,0
15.07.2019 03:00:00 14,9 11,6 15,0 18,8 21,3 17,0 8 4 15 8 WSW 1016,2 22 0 0,0
15.07.2019 02:00:00 15,0 11,5 15,1 19,2 21,6 17,0 9 5 15 8 SW 1016,2 30 0 0,0
15.07.2019 01:00:00 15,0 11,4 15,2 19,6 22,0 17,0 7 4 11 6 SW 1016,4 24 0 0,0
15.07.2019 00:00:00 15,1 11,4 15,4 20,1 22,3 17,0 5 3 9 5 WSW 1016,5 27 0 0,0
14.07.2019 23:00:00 15,3 11,3 15,6 20,6 22,7 17,0 5 3 17 9 WSW 1016,5 25 0 0,0
14.07.2019 22:00:00 15,5 11,5 15,7 21,2 23,2 17,0 10 6 19 11 W 1016,5 31 0 0,0
14.07.2019 21:00:00 15,6 11,6 15,9 22,3 23,6 17,0 12 6 27 14 WNW 1016,3 32 0 0,0
14.07.2019 20:00:00 16,3 11,8 16,6 24,3 23,8 16,9 18 10 30 16 WNW 1016,2 25 15 0,0
14.07.2019 19:00:00 17,1 12,1 18,2 26,1 23,8 16,9 20 11 31 17 WNW 1016,2 23 23 0,0
14.07.2019 18:00:00 18,0 12,2 20,4 27,7 23,6 16,9 19 10 31 17 NNW 1016,2 32 20 0,0
14.07.2019 17:00:00 18,4 12,3 20,8 28,4 23,2 16,9 19 10 27 15 NW 1016,4 29 22 0,0
14.07.2019 16:00:00 19,7 13,2 24,9 28,1 22,8 16,9 16 9 23 13 NW 1016,4 17 15 0,0
14.07.2019 15:00:00 18,8 13,4 22,0 26,2 22,5 16,9 12 6 20 11 NW 1016,5 28 0 0,0
14.07.2019 14:00:00 18,6 13,5 22,7 25,7 22,2 16,9 13 7 26 14 NW 1016,5 18 0 0,0
14.07.2019 13:00:00 17,8 13,5 20,6 24,6 22,0 16,8 14 7 22 12 NW 1016,5 19 0 0,0
14.07.2019 12:00:00 17,2 13,5 19,4 24,6 21,6 16,8 16 9 25 13 NW 1016,3 19 0 0,0
14.07.2019 11:00:00 17,7 13,9 21,0 25,0 21,2 16,8 19 10 30 16 WNW 1016,0 13 18 0,0
14.07.2019 10:00:00 17,3 13,8 19,8 22,8 21,0 16,8 22 12 29 16 WNW 1015,8 13 20 0,0
14.07.2019 09:00:00 16,3 14,2 17,8 20,1 21,0 16,8 13 7 26 14 NW 1015,6 10 0 0,0
14.07.2019 08:00:00 15,9 14,1 16,7 19,6 21,1 16,8 14 7 25 14 WNW 1015,2 10 0 0,0
14.07.2019 07:00:00 15,9 14,3 16,4 19,4 21,4 16,7 13 7 24 13 NW 1014,8 10 0 0,0
14.07.2019 06:00:00 15,8 14,4 16,1 19,0 21,7 16,7 11 6 18 10 NW 1014,6 11 0 0,0
14.07.2019 05:00:00 15,7 14,6 15,4 18,7 22,1 16,7 10 5 22 12 NW 1014,3 13 0 0,0
14.07.2019 04:00:00 16,2 14,7 15,7 19,3 22,5 16,7 16 9 23 12 WNW 1013,9 16 0 0,0
14.07.2019 03:00:00 16,3 15,1 15,5 19,5 23,0 16,7 14 8 22 12 WNW 1013,9 11 0 0,0
14.07.2019 02:00:00 16,4 15,1 15,5 20,0 23,6 16,7 16 8 21 12 W 1013,8 12 0 0,0
14.07.2019 01:00:00 15,9 14,2 15,1 20,7 24,2 16,7 16 9 21 12 W 1013,7 12 0 0,0
14.07.2019 00:00:00 16,6 13,4 15,5 21,8 24,9 16,6 15 8 21 11 W 1013,7 32 0 0,0
13.07.2019 23:00:00 17,1 13,3 16,2 23,3 25,6 16,6 12 7 16 9 W 1013,8 48 0 0,0
13.07.2019 22:00:00 17,0 13,3 15,0 24,7 26,2 16,6 10 5 12 6 W 1013,9 33 2 0,0
13.07.2019 21:00:00 19,7 12,2 19,0 27,3 26,7 16,6 6 4 14 8 NW 1013,5 34 60 0,0

tt = Température de l'air
td = dewpoint
tt 5cm = Température de l'air 5cm
tt -5cm = Température de l'air -5cm
tt -20cm = Température de l'air -20cm
tt -100cm = Température de l'air -100cm
ff = Vitesse du vent
fx = gusts
dd = Direction du vent
ppp = reduced air pressure
vv = visibility
sd = Ensoleillement
rr = Quantités de précipitations

stations d'obs. à proximité